Location: Joplin, MO
(37.0842°N, 94.5133°W)
Time: 19:17:09
(UTC+02:00)

Courier 1B Rocket - Pass Details

Date: 09 April 2023
Orbit: 920 x 1202 km, 28.2° (Epoch: 08 June)

Event Time Altitude Azimuth Distance (km) Brightness Sun altitude
Rises 01:53:39 0° 264° (W) 4,094 10.4 9.7°
Reaches altitude 10° 01:56:45 10° 256° (WSW) 3,124 9.5 9.1°
Maximum altitude 02:03:45 37° 192° (SSW) 1,730 6.5 7.7°
Drops below altitude 10° 02:10:31 10° 128° (SE) 3,008 7.1 6.3°
Sets 02:13:27 0° 120° (ESE) 3,926 7.6 5.7°
